QPF
0.01 0.01 0.01 0.01 0.01 0.02 0.03 0.02 0.02 0.02 0.02 0.01 0.01 0.02 0.02 0.02 0.02 0.02 0.02 0.01 0.01 0.00 0.00 0.00 0.00 0.00 0.00 0.01 0.01 0.01 0.01 0.02 0.01 0.02 0.02 0.02 0.04 0.04
0.01 0.01 0.01 0.01 0.01 0.01 0.02 0.03 0.02 0.02 0.02 0.01 0.02 0.02 0.02 0.02 0.02 0.02 0.01 0.01 0.01 0.00 0.00 0.00 0.00 0.00 0.01 0.01 0.01 0.01 0.01 0.01 0.01 0.01 0.02 0.02 0.02 0.03
0.01 0.01 0.01 0.01 0.01 0.01 0.01 0.02 0.02 0.02 0.02 0.02 0.02 0.02 0.02 0.02 0.02 0.02 0.02 0.02 0.01 0.01 0.00 0.00 0.00 0.00 0.01 0.01 0.01 0.01 0.01 0.01 0.01 0.01 0.02 0.02 0.02 0.02
0.01 0.01 0.01 0.01 0.01 0.01 0.02 0.01 0.02 0.02 0.01 0.01 0.01 0.01 0.02 0.02 0.02 0.02 0.02 0.02 0.01 0.01 0.01 0.00 0.00 0.01 0.01 0.01 0.01 0.01 0.01 0.00 0.00 0.01 0.01 0.02 0.02 0.02
0.01 0.01 0.01 0.01 0.01 0.02 0.02 0.02 0.01 0.01 0.01 0.01 0.01 0.01 0.01 0.01 0.02 0.03 0.02 0.02 0.01 0.01 0.02 0.01 0.01 0.01 0.01 0.01 0.01 0.01 0.01 0.01 0.01 0.01 0.01 0.02 0.02 0.02
0.01 0.01 0.01 0.01 0.01 0.01 0.01 0.01 0.01 0.01 0.01 0.01 0.01 0.01 0.02 0.02 0.02 0.03 0.03 0.03 0.02 0.02 0.02 0.01 0.01 0.01 0.01 0.01 0.01 0.01 0.01 0.01 0.01 0.01 0.01 0.01 0.02 0.01
0.01 0.01 0.01 0.01 0.01 0.01 0.01 0.01 0.01 0.01 0.02 0.02 0.02 0.02 0.02 0.02 0.03 0.02 0.02 0.03 0.03 0.02 0.02 0.01 0.01 0.01 0.02 0.02 0.02 0.02 0.02 0.01 0.01 0.02 0.02 0.02 0.02 0.02
0.01 0.01 0.01 0.00 0.01 0.01 0.01 0.01 0.01 0.02 0.02 0.02 0.02 0.02 0.02 0.02 0.02 0.03 0.03 0.03 0.04 0.03 0.03 0.03 0.02 0.02 0.01 0.02 0.04 0.04 0.03 0.04 0.03 0.02 0.02 0.03 0.04 0.05
0.01 0.01 0.01 0.00 0.01 0.01 0.01 0.01 0.01 0.01 0.02 0.02 0.02 0.02 0.02 0.02 0.02 0.02 0.02 0.02 0.03 0.04 0.04 0.03 0.03 0.03 0.02 0.02 0.03 0.03 0.04 0.04 0.05 0.04 0.02 0.02 0.04 0.06
0.01 0.01 0.01 0.00 0.01 0.01 0.01 0.01 0.01 0.00 0.01 0.01 0.01 0.01 0.01 0.01 0.02 0.01 0.02 0.02 0.02 0.03 0.04 0.02 0.02 0.02 0.02 0.02 0.03 0.03 0.02 0.03 0.03 0.03 0.02 0.02 0.03 0.05
0.01 0.01 0.01 0.01 0.01 0.02 0.03 0.02 0.01 0.01 0.00 0.01 0.01 0.02 0.02 0.02 0.03 0.03 0.03 0.03 0.04 0.03 0.02 0.02 0.01 0.02 0.02 0.02 0.02 0.03 0.03 0.02 0.02 0.01 0.01 0.01 0.02 0.04
0.00 0.00 0.00 0.01 0.02 0.03 0.02 0.02 0.02 0.01 0.01 0.01 0.02 0.02 0.02 0.02 0.03 0.03 0.02 0.03 0.04 0.03 0.02 0.01 0.01 0.02 0.02 0.02 0.02 0.03 0.03 0.02 0.02 0.01 0.01 0.01 0.01 0.03
0.00 0.00 0.00 0.01 0.01 0.02 0.02 0.02 0.03 0.02 0.02 0.03 0.04 0.03 0.04 0.04 0.04 0.03 0.02 0.02 0.03 0.02 0.02 0.02 0.02 0.02 0.02 0.02 0.02 0.02 0.02 0.02 0.02 0.02 0.02 0.01 0.01 0.02
0.00 0.00 0.00 0.01 0.01 0.01 0.01 0.02 0.02 0.02 0.02 0.03 0.05 0.06 0.05 0.04 0.03 0.02 0.01 0.01 0.01 0.01 0.02 0.03 0.02 0.02 0.03 0.02 0.03 0.02 0.03 0.02 0.02 0.02 0.03 0.03 0.02 0.02
0.00 0.01 0.01 0.01 0.01 0.01 0.01 0.01 0.01 0.01 0.02 0.03 0.03 0.03 0.03 0.02 0.02 0.02 0.01 0.01 0.01 0.01 0.02 0.03 0.03 0.02 0.03 0.03 0.03 0.03 0.03 0.03 0.03 0.03 0.03 0.02 0.02 0.03
0.01 0.01 0.01 0.01 0.01 0.01 0.01 0.01 0.01 0.01 0.02 0.02 0.02 0.02 0.02 0.02 0.01 0.01 0.01 0.01 0.01 0.01 0.02 0.02 0.03 0.04 0.04 0.03 0.03 0.03 0.03 0.03 0.03 0.03 0.03 0.03 0.03 0.03
0.01 0.01 0.01 0.01 0.01 0.01 0.01 0.01 0.01 0.01 0.01 0.01 0.01 0.02 0.02 0.01 0.01 0.01 0.01 0.01 0.01 0.01 0.01 0.02 0.03 0.04 0.04 0.03 0.03 0.03 0.03 0.03 0.03 0.03 0.03 0.03 0.03 0.03
0.02 0.01 0.01 0.01 0.01 0.01 0.01 0.01 0.01 0.01 0.02 0.02 0.02 0.02 0.01 0.01 0.01 0.01 0.01 0.02 0.01 0.01 0.02 0.02 0.02 0.02 0.02 0.03 0.02 0.02 0.02 0.03 0.03 0.03 0.04 0.04 0.04 0.04
0.01 0.01 0.01 0.01 0.01 0.01 0.02 0.02 0.01 0.01 0.02 0.02 0.02 0.02 0.03 0.02 0.02 0.02 0.02 0.02 0.02 0.02 0.02 0.02 0.02 0.02 0.02 0.02 0.02 0.01 0.02 0.02 0.02 0.03 0.04 0.04 0.04 0.04
0.01 0.01 0.01 0.01 0.01 0.01 0.01 0.01 0.01 0.01 0.02 0.03 0.03 0.04 0.04 0.04 0.04 0.04 0.03 0.03 0.03 0.03 0.02 0.02 0.01 0.01 0.01 0.01 0.02 0.01 0.01 0.02 0.02 0.03 0.04 0.05 0.06 0.06
0.02 0.02 0.02 0.02 0.01 0.01 0.01 0.01 0.01 0.01 0.02 0.02 0.03 0.04 0.04 0.04 0.03 0.03 0.03 0.02 0.03 0.03 0.02 0.02 0.02 0.02 0.02 0.02 0.02 0.02 0.01 0.02 0.04 0.04 0.04 0.05 0.06 0.06
0.02 0.02 0.02 0.01 0.01 0.01 0.01 0.01 0.01 0.01 0.01 0.02 0.03 0.03 0.03 0.03 0.03 0.03 0.03 0.03 0.04 0.04 0.03 0.03 0.02 0.03 0.03 0.03 0.02 0.01 0.01 0.02 0.03 0.05 0.06 0.05 0.05 0.05
0.02 0.02 0.02 0.02 0.01 0.01 0.01 0.01 0.01 0.01 0.01 0.01 0.03 0.02 0.02 0.02 0.03 0.03 0.03 0.04 0.04 0.04 0.05 0.05 0.04 0.04 0.04 0.04 0.03 0.02 0.02 0.02 0.03 0.04 0.05 0.06 0.06 0.06
MSLP
1017.15 1017.43 1017.76 1018.10 1018.43 1018.72 1018.97 1019.16 1019.30 1019.40 1019.48 1019.57 1019.67 1019.81 1019.98 1020.18 1020.40 1020.62 1020.83 1021.03 1021.20 1021.35 1021.48 1021.59 1021.69 1021.79 1021.88 1021.96 1022.03 1022.08 1022.12 1022.14 1022.14 1022.13 1022.11 1022.06 1022.01 1021.93
1017.03 1017.31 1017.63 1017.97 1018.30 1018.62 1018.89 1019.12 1019.29 1019.41 1019.51 1019.58 1019.66 1019.75 1019.87 1020.01 1020.18 1020.37 1020.57 1020.78 1021.00 1021.20 1021.40 1021.59 1021.76 1021.91 1022.04 1022.14 1022.22 1022.27 1022.30 1022.30 1022.29 1022.27 1022.23 1022.17 1022.10 1022.00
1016.84 1017.12 1017.44 1017.78 1018.13 1018.47 1018.78 1019.04 1019.25 1019.41 1019.52 1019.60 1019.66 1019.73 1019.80 1019.90 1020.03 1020.19 1020.38 1020.59 1020.81 1021.05 1021.29 1021.51 1021.71 1021.89 1022.04 1022.15 1022.22 1022.27 1022.29 1022.29 1022.28 1022.26 1022.23 1022.17 1022.10 1022.00
1016.56 1016.84 1017.16 1017.52 1017.89 1018.26 1018.61 1018.92 1019.17 1019.37 1019.52 1019.62 1019.69 1019.75 1019.80 1019.88 1019.97 1020.10 1020.27 1020.46 1020.68 1020.91 1021.14 1021.36 1021.56 1021.73 1021.86 1021.96 1022.02 1022.06 1022.09 1022.10 1022.11 1022.11 1022.09 1022.07 1022.01 1021.93
1016.19 1016.48 1016.82 1017.19 1017.59 1018.00 1018.39 1018.75 1019.06 1019.31 1019.50 1019.64 1019.73 1019.80 1019.86 1019.92 1020.00 1020.11 1020.24 1020.40 1020.58 1020.77 1020.97 1021.14 1021.30 1021.42 1021.51 1021.58 1021.62 1021.65 1021.69 1021.72 1021.76 1021.79 1021.82 1021.84 1021.82 1021.76
1015.78 1016.08 1016.43 1016.82 1017.25 1017.69 1018.12 1018.53 1018.89 1019.20 1019.44 1019.63 1019.76 1019.86 1019.93 1020.00 1020.07 1020.15 1020.26 1020.37 1020.50 1020.63 1020.75 1020.86 1020.94 1020.99 1021.02 1021.04 1021.06 1021.08 1021.12 1021.18 1021.25 1021.34 1021.42 1021.49 1021.51 1021.49
1015.37 1015.67 1016.03 1016.44 1016.88 1017.35 1017.82 1018.26 1018.67 1019.02 1019.32 1019.55 1019.73 1019.86 1019.96 1020.05 1020.12 1020.19 1020.27 1020.34 1020.41 1020.46 1020.50 1020.52 1020.52 1020.49 1020.46 1020.42 1020.40 1020.41 1020.46 1020.54 1020.65 1020.78 1020.92 1021.03 1021.10 1021.12
1014.99 1015.30 1015.66 1016.07 1016.53 1017.01 1017.50 1017.97 1018.40 1018.79 1019.12 1019.39 1019.61 1019.78 1019.91 1020.01 1020.10 1020.17 1020.22 1020.26 1020.27 1020.27 1020.23 1020.17 1020.09 1019.99 1019.89 1019.81 1019.75 1019.75 1019.79 1019.88 1020.02 1020.18 1020.35 1020.50 1020.61 1020.66
1014.69 1014.99 1015.35 1015.76 1016.22 1016.70 1017.18 1017.65 1018.10 1018.49 1018.84 1019.14 1019.38 1019.59 1019.75 1019.88 1019.98 1020.05 1020.10 1020.12 1020.10 1020.05 1019.97 1019.85 1019.71 1019.56 1019.41 1019.29 1019.21 1019.18 1019.21 1019.29 1019.43 1019.59 1019.77 1019.93 1020.05 1020.13
1014.49 1014.78 1015.13 1015.54 1015.98 1016.44 1016.91 1017.36 1017.79 1018.17 1018.52 1018.82 1019.08 1019.30 1019.48 1019.64 1019.76 1019.85 1019.91 1019.93 1019.91 1019.85 1019.74 1019.61 1019.45 1019.27 1019.10 1018.96 1018.85 1018.79 1018.79 1018.85 1018.95 1019.08 1019.23 1019.36 1019.48 1019.54
1014.38 1014.67 1015.02 1015.41 1015.83 1016.26 1016.69 1017.11 1017.50 1017.86 1018.19 1018.48 1018.73 1018.96 1019.16 1019.33 1019.47 1019.59 1019.67 1019.71 1019.71 1019.67 1019.59 1019.47 1019.32 1019.15 1018.99 1018.83 1018.71 1018.62 1018.57 1018.57 1018.61 1018.67 1018.75 1018.84 1018.90 1018.95
1014.36 1014.66 1015.01 1015.38 1015.78 1016.17 1016.57 1016.93 1017.28 1017.60 1017.89 1018.15 1018.39 1018.61 1018.82 1019.00 1019.17 1019.31 1019.42 1019.50 1019.54 1019.53 1019.49 1019.42 1019.31 1019.17 1019.03 1018.88 1018.74 1018.62 1018.52 1018.44 1018.39 1018.37 1018.35 1018.35 1018.36 1018.36
1014.43 1014.75 1015.09 1015.45 1015.82 1016.18 1016.53 1016.85 1017.14 1017.41 1017.66 1017.89 1018.11 1018.31 1018.51 1018.69 1018.87 1019.03 1019.17 1019.28 1019.36 1019.41 1019.43 1019.40 1019.35 1019.26 1019.15 1019.01 1018.86 1018.70 1018.54 1018.39 1018.25 1018.11 1018.00 1017.91 1017.83 1017.77
1014.57 1014.90 1015.25 1015.60 1015.94 1016.26 1016.56 1016.83 1017.08 1017.30 1017.50 1017.70 1017.88 1018.06 1018.25 1018.42 1018.60 1018.76 1018.91 1019.05 1019.17 1019.26 1019.32 1019.35 1019.34 1019.30 1019.22 1019.10 1018.95 1018.76 1018.55 1018.32 1018.09 1017.86 1017.65 1017.47 1017.32 1017.21
1014.76 1015.10 1015.45 1015.78 1016.10 1016.38 1016.64 1016.86 1017.06 1017.24 1017.40 1017.56 1017.71 1017.86 1018.01 1018.17 1018.33 1018.48 1018.63 1018.77 1018.89 1019.00 1019.09 1019.16 1019.19 1019.19 1019.13 1019.03 1018.87 1018.67 1018.42 1018.14 1017.84 1017.54 1017.25 1017.00 1016.80 1016.65
1014.95 1015.31 1015.65 1015.96 1016.24 1016.49 1016.70 1016.87 1017.03 1017.17 1017.29 1017.41 1017.53 1017.65 1017.77 1017.90 1018.02 1018.14 1018.26 1018.38 1018.49 1018.60 1018.69 1018.77 1018.82 1018.83 1018.80 1018.71 1018.56 1018.35 1018.09 1017.78 1017.45 1017.10 1016.78 1016.49 1016.26 1016.09
1015.11 1015.45 1015.77 1016.06 1016.30 1016.50 1016.67 1016.80 1016.92 1017.01 1017.11 1017.19 1017.28 1017.37 1017.46 1017.54 1017.63 1017.71 1017.78 1017.86 1017.94 1018.01 1018.09 1018.15 1018.19 1018.21 1018.19 1018.11 1017.98 1017.78 1017.53 1017.22 1016.89 1016.55 1016.22 1015.93 1015.70 1015.53
1015.16 1015.48 1015.77 1016.01 1016.21 1016.36 1016.48 1016.57 1016.64 1016.71 1016.77 1016.83 1016.89 1016.96 1017.01 1017.06 1017.10 1017.14 1017.16 1017.19 1017.22 1017.25 1017.28 1017.31 1017.34 1017.35 1017.33 1017.27 1017.16 1016.99 1016.76 1016.50 1016.20 1015.89 1015.60 1015.33 1015.12 1014.97
1015.05 1015.34 1015.58 1015.77 1015.91 1016.01 1016.08 1016.13 1016.17 1016.20 1016.24 1016.28 1016.33 1016.37 1016.40 1016.42 1016.43 1016.43 1016.41 1016.39 1016.37 1016.35 1016.34 1016.34 1016.34 1016.34 1016.32 1016.27 1016.19 1016.06 1015.88 1015.67 1015.43 1015.18 1014.94 1014.72 1014.54 1014.41
1014.74 1014.99 1015.18 1015.31 1015.40 1015.44 1015.46 1015.47 1015.48 1015.49 1015.50 1015.53 1015.57 1015.60 1015.63 1015.64 1015.63 1015.60 1015.55 1015.49 1015.43 1015.38 1015.34 1015.31 1015.29 1015.27 1015.26 1015.23 1015.17 1015.09 1014.97 1014.82 1014.65 1014.47 1014.28 1014.12 1013.97 1013.87
1014.23 1014.42 1014.56 1014.64 1014.67 1014.67 1014.65 1014.62 1014.60 1014.59 1014.60 1014.63 1014.66 1014.70 1014.72 1014.73 1014.72 1014.69 1014.63 1014.56 1014.48 1014.41 1014.34 1014.29 1014.26 1014.24 1014.23 1014.22 1014.20 1014.16 1014.10 1014.01 1013.91 1013.79 1013.66 1013.54 1013.43 1013.34
1013.53 1013.68 1013.77 1013.80 1013.79 1013.76 1013.70 1013.65 1013.62 1013.60 1013.60 1013.63 1013.67 1013.71 1013.75 1013.77 1013.77 1013.75 1013.70 1013.63 1013.55 1013.47 1013.40 1013.35 1013.31 1013.29 1013.29 1013.30 1013.31 1013.31 1013.30 1013.27 1013.22 1013.16 1013.08 1013.00 1012.91 1012.82
1012.72 1012.83 1012.88 1012.88 1012.85 1012.79 1012.72 1012.66 1012.62 1012.60 1012.60 1012.63 1012.68 1012.73 1012.78 1012.82 1012.83 1012.82 1012.78 1012.73 1012.66 1012.59 1012.53 1012.48 1012.45 1012.43 1012.44 1012.47 1012.50 1012.54 1012.57 1012.58 1012.58 1012.56 1012.53 1012.47 1012.40 1012.32
Thickness
5665 5663 5661 5660 5659 5658 5656 5653 5648 5643 5645 5651 5654 5657 5657 5657 5656 5655 5654 5653 5652 5652 5651 5650 5650 5650 5650 5650 5650 5651 5651 5652 5652 5653 5653 5653 5654 5654
5660 5658 5656 5655 5654 5653 5651 5649 5647 5643 5640 5644 5647 5650 5651 5651 5650 5649 5649 5648 5647 5647 5646 5646 5646 5646 5645 5645 5646 5646 5647 5647 5647 5648 5647 5648 5648 5649
5656 5653 5651 5650 5648 5646 5645 5644 5642 5640 5636 5638 5641 5643 5643 5643 5642 5643 5643 5643 5642 5642 5642 5642 5641 5641 5641 5641 5641 5641 5642 5642 5642 5642 5642 5642 5642 5643
5650 5648 5646 5645 5642 5640 5639 5637 5636 5636 5632 5630 5633 5635 5635 5636 5636 5636 5637 5637 5637 5637 5637 5637 5636 5636 5636 5636 5636 5636 5636 5636 5636 5636 5636 5636 5637 5637
5645 5642 5640 5638 5635 5633 5632 5631 5630 5630 5628 5625 5625 5627 5628 5629 5629 5630 5630 5631 5631 5632 5632 5631 5631 5631 5631 5631 5631 5631 5631 5631 5631 5631 5631 5631 5631 5631
5639 5636 5634 5631 5628 5627 5625 5624 5623 5621 5620 5618 5618 5618 5619 5621 5621 5620 5621 5622 5624 5625 5625 5625 5626 5626 5626 5626 5626 5626 5626 5626 5625 5625 5625 5626 5626 5626
5632 5630 5627 5625 5624 5621 5620 5617 5616 5613 5612 5610 5609 5610 5610 5610 5610 5612 5612 5613 5616 5618 5618 5618 5619 5619 5620 5620 5621 5621 5621 5621 5620 5620 5620 5620 5621 5621
5625 5622 5621 5618 5617 5615 5614 5612 5611 5608 5605 5603 5602 5602 5602 5603 5603 5604 5603 5603 5604 5610 5610 5611 5612 5612 5613 5614 5615 5616 5616 5615 5615 5615 5615 5615 5615 5616
5620 5617 5615 5613 5610 5608 5607 5606 5604 5603 5602 5599 5597 5596 5596 5597 5597 5597 5596 5596 5597 5602 5602 5602 5605 5605 5607 5609 5609 5609 5609 5609 5609 5608 5608 5609 5609 5610
5614 5612 5609 5606 5604 5602 5600 5598 5597 5597 5596 5595 5594 5593 5593 5593 5592 5592 5591 5592 5594 5596 5596 5594 5597 5598 5601 5602 5602 5602 5602 5601 5601 5601 5602 5602 5603 5604
5608 5606 5603 5600 5599 5597 5593 5591 5590 5590 5590 5590 5589 5588 5587 5587 5586 5585 5584 5583 5583 5586 5588 5587 5589 5591 5593 5594 5594 5594 5594 5593 5593 5594 5594 5594 5595 5596
5600 5598 5596 5593 5592 5589 5586 5584 5582 5582 5582 5582 5581 5581 5581 5580 5580 5578 5577 5575 5574 5576 5580 5579 5580 5580 5581 5585 5585 5584 5584 5585 5585 5585 5586 5586 5587 5587
5593 5590 5588 5586 5584 5582 5580 5578 5576 5576 5575 5574 5574 5573 5573 5573 5572 5571 5571 5569 5568 5568 5572 5572 5571 5571 5570 5573 5575 5575 5575 5576 5576 5577 5577 5578 5578 5579
5585 5583 5580 5579 5576 5574 5573 5572 5572 5570 5568 5567 5565 5564 5564 5564 5565 5565 5564 5564 5564 5563 5565 5564 5563 5563 5562 5562 5564 5567 5567 5567 5568 5569 5569 5570 5570 5571
5576 5575 5573 5571 5568 5566 5566 5565 5563 5561 5560 5558 5556 5556 5556 5557 5557 5557 5557 5557 5558 5558 5558 5558 5557 5556 5555 5554 5555 5557 5558 5559 5560 5560 5561 5561 5562 5563
5567 5565 5564 5562 5560 5559 5557 5556 5555 5553 5552 5550 5549 5549 5549 5549 5548 5548 5548 5548 5549 5550 5551 5551 5550 5549 5547 5548 5547 5548 5549 5549 5551 5551 5552 5553 5554 5555
5559 5556 5554 5552 5551 5550 5549 5547 5546 5545 5543 5542 5541 5540 5540 5540 5540 5540 5540 5540 5539 5541 5542 5543 5543 5542 5541 5540 5539 5540 5540 5541 5542 5542 5542 5543 5546 5547
5551 5548 5546 5544 5543 5541 5540 5538 5537 5536 5535 5534 5533 5532 5532 5532 5532 5532 5532 5531 5531 5532 5533 5533 5533 5532 5532 5532 5532 5532 5531 5532 5533 5533 5533 5534 5537 5540
5541 5539 5538 5536 5535 5533 5532 5530 5529 5528 5527 5526 5525 5524 5524 5524 5523 5523 5523 5523 5523 5524 5524 5524 5523 5521 5520 5522 5524 5524 5523 5523 5524 5525 5525 5525 5527 5531
5533 5532 5530 5529 5528 5526 5524 5523 5521 5520 5519 5518 5517 5516 5516 5515 5515 5514 5513 5513 5514 5514 5515 5515 5514 5513 5512 5512 5514 5516 5515 5514 5515 5516 5516 5517 5519 5522
5525 5524 5523 5521 5520 5518 5517 5515 5513 5512 5510 5509 5508 5508 5507 5506 5506 5505 5505 5505 5505 5504 5505 5506 5507 5507 5506 5505 5505 5507 5507 5507 5507 5506 5507 5507 5508 5510
5518 5516 5515 5513 5512 5510 5508 5506 5505 5503 5502 5501 5500 5499 5499 5498 5498 5498 5497 5496 5496 5496 5496 5497 5498 5498 5497 5496 5497 5498 5498 5499 5498 5498 5497 5498 5498 5500
5512 5510 5508 5506 5504 5502 5501 5499 5497 5496 5494 5493 5492 5491 5491 5490 5490 5490 5489 5489 5488 5488 5488 5488 5489 5489 5488 5488 5487 5488 5489 5489 5489 5488 5488 5489 5491 5493